This is the latest recevied weather packets stored in our database for station/object DG2GGP-11. If no packets are shown the sender has not sent any weather packets the latest 10 day(s).
| Time | Temp. | Humidity | Pressure | Rain* | Wind** | Luminosity | Snow |
|---|---|---|---|---|---|---|---|
| 1777733956 | 25.56° C | 32% | 1019.3 hPa | 0 mm | - | 14 W/m² | - |
| 1777733357 | 24.44° C | 33% | 1019.4 hPa | 0 mm | - | 38 W/m² | - |
| 1777732756 | 24.44° C | 34% | 1019.6 hPa | 0 mm | - | 37 W/m² | - |
| 1777732157 | 24.44° C | 32% | 1019.8 hPa | 0 mm | - | 21 W/m² | - |
| 1777731556 | 25.56° C | 31% | 1019.9 hPa | 0 mm | - | 19 W/m² | - |
| 1777730957 | 25.56° C | 31% | 1020 hPa | 0 mm | - | 39 W/m² | - |
| 1777730357 | 25.56° C | 30% | 1020.1 hPa | 0 mm | - | 39 W/m² | - |
| 1777729757 | 25.56° C | 30% | 1020.3 hPa | 0 mm | - | 40 W/m² | - |
| 1777729157 | 25.56° C | 30% | 1020.4 hPa | 0 mm | - | 46 W/m² | - |
| 1777728557 | 25.56° C | 30% | 1020.4 hPa | 0 mm | - | 50 W/m² | - |
| 1777727957 | 25° C | 31% | 1020.6 hPa | 0 mm | - | 51 W/m² | - |
| 1777727357 | 24.44° C | 32% | 1020.7 hPa | 0 mm | - | 49 W/m² | - |
| 1777726757 | 25° C | 30% | 1020.8 hPa | 0 mm | - | 23 W/m² | - |
| 1777726157 | 25° C | 30% | 1020.9 hPa | 0 mm | - | 42 W/m² | - |
| 1777725557 | 25° C | 30% | 1021 hPa | 0 mm | - | 48 W/m² | - |
| 1777724957 | 24.44° C | 31% | 1021.2 hPa | 0 mm | - | 50 W/m² | - |
| 1777724357 | 24.44° C | 30% | 1021.3 hPa | 0 mm | - | 48 W/m² | - |
| 1777723757 | 23.89° C | 31% | 1021.4 hPa | 0 mm | - | 46 W/m² | - |
| 1777723157 | 25° C | 30% | 1021.5 hPa | 0 mm | - | 46 W/m² | - |
| 1777722557 | 24.44° C | 31% | 1021.6 hPa | 0 mm | - | 48 W/m² | - |
| 1777721957 | 24.44° C | 31% | 1021.8 hPa | 0 mm | - | 49 W/m² | - |
| 1777721357 | 23.89° C | 31% | 1022 hPa | 0 mm | - | 45 W/m² | - |
| 1777720757 | 23.33° C | 31% | 1022.1 hPa | 0 mm | - | 48 W/m² | - |
| 1777720157 | 23.33° C | 33% | 1022.1 hPa | 0 mm | - | 44 W/m² | - |
| 1777719557 | 23.89° C | 31% | 1022.2 hPa | 0 mm | - | 46 W/m² | - |
* Rain latest hour (hover to see other rain measurements)
** Current wind speed in m/s (hover to see current wind gust speed)